Location: Bennemühlen
(52.5740°N, 9.7135°E)
Time: 10:53:46
(UTC+00:00)

SR - Pass Details

Date: 22 February 2026
Orbit: 573 x 848 km, 66.7° (Epoch: 7 March)

Event Time Altitude Azimuth Distance (km) Brightness Sun altitude
Exits shadow 04:22:19 40° 291° (WNW) 906 ? -19.0°
Maximum altitude 04:23:03 44° 319° (NW) 858 ? -18.9°
Drops below altitude 10° 04:27:29 10° 32° (NNE) 2,059 ? -18.3°
Sets 04:29:58 0° 39° (NE) 3,020 ? -17.9°
